Location: Monteux
(44.0348°N, 4.9972°E)
Time: 17:57:24
(UTC+00:00)

H-2A R/B - Pass Details

Date: 30 November 2020
Orbit: 499 x 540 km, 97.3° (Epoch: 22 January)

Event Time Altitude Azimuth Distance (km) Brightness Sun altitude
Rises 16:37:53 0° 174° (S) 2,651 6.6 -6.3°
Reaches altitude 10° 16:39:59 10° 178° (S) 1,773 5.7 -6.7°
Maximum altitude 16:43:47 62° 260° (W) 606 3.4 -7.3°
Drops below altitude 10° 16:47:40 10° 341° (NNW) 1,806 5.4 -8.0°
Sets 16:49:49 0° 345° (NNW) 2,707 6.3 -8.3°
